QPF
0.00 0.00 0.00 0.00 0.00 0.00 0.00 0.00 0.00 0.00 0.00 0.00 0.00 0.01 0.02 0.02 0.03 0.04 0.04 0.04 0.03 0.04 0.04 0.03 0.02 0.04 0.03 0.04 0.06 0.07 0.08 0.09 0.08 0.09 0.08 0.06 0.04 0.03 0.02 0.02 0.02 0.01 0.01 0.02
0.00 0.00 0.00 0.00 0.00 0.00 0.00 0.00 0.00 0.00 0.00 0.00 0.00 0.01 0.02 0.02 0.02 0.01 0.02 0.02 0.01 0.01 0.02 0.01 0.01 0.01 0.01 0.01 0.03 0.04 0.04 0.05 0.04 0.04 0.05 0.04 0.03 0.02 0.01 0.01 0.01 0.01 0.01 0.01
0.00 0.00 0.00 0.00 0.00 0.00 0.00 0.00 0.00 0.00 0.00 0.00 0.00 0.01 0.01 0.01 0.01 0.00 0.01 0.01 0.01 0.01 0.01 0.01 0.01 0.01 0.01 0.01 0.02 0.02 0.01 0.02 0.02 0.02 0.02 0.02 0.01 0.01 0.01 0.01 0.00 0.00 0.00 0.01
0.00 0.00 0.00 0.00 0.00 0.00 0.00 0.00 0.00 0.00 0.00 0.00 0.00 0.01 0.01 0.01 0.01 0.01 0.00 0.01 0.00 0.00 0.00 0.01 0.01 0.01 0.01 0.01 0.01 0.01 0.01 0.01 0.02 0.01 0.01 0.01 0.01 0.01 0.01 0.00 0.00 0.00 0.01 0.01
0.00 0.00 0.00 0.00 0.00 0.00 0.00 0.00 0.00 0.00 0.00 0.00 0.00 0.01 0.01 0.00 0.00 0.01 0.00 0.01 0.01 0.00 0.00 0.00 0.00 0.01 0.01 0.00 0.00 0.00 0.00 0.01 0.01 0.01 0.01 0.01 0.00 0.00 0.00 0.00 0.00 0.00 0.00 0.00
0.00 0.00 0.00 0.00 0.00 0.00 0.00 0.00 0.00 0.00 0.00 0.01 0.00 0.00 0.00 0.00 0.00 0.00 0.00 0.00 0.00 0.00 0.00 0.01 0.00 0.00 0.01 0.01 0.00 0.00 0.00 0.00 0.00 0.00 0.00 0.00 0.00 0.00 0.00 0.00 0.00 0.00 0.00 0.00
0.00 0.00 0.00 0.00 0.00 0.00 0.00 0.00 0.01 0.01 0.01 0.01 0.00 0.00 0.00 0.00 0.00 0.00 0.00 0.00 0.00 0.00 0.00 0.00 0.00 0.00 0.00 0.00 0.00 0.00 0.00 0.00 0.00 0.00 0.00 0.00 0.00 0.00 0.00 0.00 0.00 0.00 0.00 0.00
0.00 0.00 0.00 0.00 0.00 0.00 0.00 0.00 0.01 0.01 0.00 0.00 0.00 0.00 0.00 0.00 0.00 0.00 0.00 0.00 0.00 0.00 0.00 0.00 0.00 0.00 0.01 0.01 0.00 0.00 0.00 0.00 0.00 0.00 0.00 0.00 0.00 0.00 0.00 0.00 0.00 0.00 0.00 0.00
0.00 0.00 0.00 0.00 0.00 0.00 0.00 0.00 0.00 0.00 0.00 0.00 0.00 0.00 0.00 0.00 0.00 0.00 0.00 0.00 0.00 0.00 0.00 0.00 0.00 0.00 0.00 0.00 0.00 0.00 0.00 0.00 0.00 0.00 0.00 0.00 0.00 0.00 0.00 0.00 0.00 0.00 0.00 0.00
0.00 0.00 0.00 0.00 0.00 0.00 0.00 0.00 0.00 0.00 0.01 0.00 0.00 0.00 0.00 0.00 0.00 0.00 0.00 0.00 0.00 0.00 0.00 0.00 0.00 0.00 0.00 0.00 0.00 0.00 0.00 0.00 0.00 0.00 0.00 0.00 0.00 0.00 0.00 0.00 0.00 0.00 0.00 0.00
0.00 0.00 0.00 0.00 0.00 0.00 0.00 0.00 0.00 0.00 0.00 0.00 0.00 0.00 0.00 0.00 0.00 0.00 0.00 0.00 0.00 0.00 0.00 0.00 0.00 0.00 0.00 0.00 0.00 0.00 0.00 0.00 0.00 0.00 0.00 0.00 0.00 0.00 0.00 0.00 0.00 0.00 0.00 0.00
0.00 0.00 0.00 0.00 0.00 0.00 0.00 0.00 0.00 0.00 0.00 0.00 0.00 0.00 0.00 0.00 0.00 0.00 0.00 0.00 0.00 0.00 0.00 0.00 0.00 0.00 0.00 0.00 0.00 0.00 0.00 0.00 0.00 0.00 0.00 0.00 0.00 0.00 0.00 0.00 0.00 0.00 0.00 0.00
0.00 0.00 0.00 0.00 0.00 0.00 0.00 0.00 0.00 0.00 0.00 0.00 0.00 0.00 0.00 0.00 0.00 0.00 0.00 0.00 0.00 0.00 0.00 0.00 0.00 0.00 0.00 0.00 0.00 0.00 0.00 0.00 0.00 0.00 0.00 0.00 0.00 0.00 0.00 0.00 0.00 0.00 0.00 0.00
0.01 0.00 0.00 0.00 0.00 0.00 0.00 0.00 0.00 0.00 0.00 0.00 0.00 0.00 0.00 0.00 0.00 0.00 0.00 0.00 0.00 0.00 0.00 0.00 0.00 0.00 0.00 0.00 0.00 0.00 0.00 0.00 0.00 0.00 0.00 0.00 0.00 0.00 0.00 0.00 0.00 0.00 0.00 0.00
0.01 0.00 0.00 0.00 0.00 0.00 0.00 0.00 0.00 0.00 0.00 0.00 0.00 0.00 0.00 0.00 0.00 0.00 0.00 0.00 0.00 0.00 0.00 0.00 0.00 0.00 0.00 0.00 0.00 0.00 0.00 0.00 0.00 0.00 0.00 0.00 0.00 0.00 0.00 0.00 0.00 0.00 0.00 0.00
0.01 0.00 0.00 0.00 0.00 0.00 0.00 0.00 0.00 0.00 0.00 0.00 0.00 0.00 0.00 0.00 0.00 0.00 0.00 0.00 0.00 0.00 0.00 0.00 0.00 0.00 0.00 0.00 0.00 0.00 0.00 0.00 0.00 0.00 0.00 0.00 0.00 0.00 0.00 0.00 0.00 0.00 0.00 0.00
0.01 0.01 0.00 0.00 0.00 0.00 0.00 0.00 0.00 0.00 0.00 0.00 0.00 0.00 0.00 0.00 0.00 0.00 0.00 0.00 0.00 0.00 0.00 0.00 0.00 0.00 0.00 0.00 0.00 0.00 0.00 0.00 0.00 0.00 0.00 0.00 0.00 0.00 0.00 0.00 0.00 0.00 0.00 0.00
0.01 0.01 0.00 0.00 0.00 0.00 0.00 0.00 0.00 0.00 0.00 0.00 0.00 0.00 0.00 0.00 0.00 0.00 0.00 0.00 0.00 0.00 0.00 0.00 0.00 0.00 0.00 0.00 0.00 0.00 0.00 0.00 0.00 0.00 0.00 0.00 0.00 0.00 0.00 0.00 0.00 0.00 0.00 0.00
0.01 0.01 0.01 0.01 0.00 0.00 0.00 0.00 0.00 0.00 0.00 0.00 0.00 0.00 0.00 0.01 0.00 0.00 0.00 0.00 0.00 0.00 0.00 0.00 0.00 0.00 0.00 0.00 0.00 0.00 0.00 0.00 0.00 0.00 0.00 0.00 0.00 0.00 0.00 0.00 0.00 0.00 0.00 0.00
0.01 0.01 0.01 0.01 0.01 0.01 0.01 0.00 0.00 0.00 0.01 0.00 0.00 0.00 0.00 0.00 0.00 0.00 0.00 0.00 0.00 0.00 0.00 0.00 0.00 0.00 0.00 0.00 0.00 0.00 0.00 0.00 0.00 0.00 0.00 0.00 0.00 0.00 0.00 0.00 0.00 0.00 0.00 0.00
0.01 0.01 0.01 0.01 0.02 0.01 0.00 0.00 0.01 0.01 0.01 0.00 0.00 0.00 0.00 0.00 0.00 0.00 0.00 0.00 0.00 0.00 0.00 0.00 0.00 0.00 0.00 0.00 0.00 0.00 0.00 0.00 0.00 0.00 0.00 0.00 0.00 0.00 0.00 0.00 0.00 0.00 0.00 0.00
0.02 0.02 0.02 0.02 0.03 0.01 0.00 0.01 0.01 0.01 0.01 0.00 0.00 0.00 0.00 0.00 0.00 0.00 0.00 0.00 0.00 0.00 0.00 0.00 0.00 0.00 0.00 0.00 0.00 0.00 0.00 0.00 0.00 0.00 0.00 0.00 0.00 0.00 0.00 0.00 0.00 0.00 0.00 0.00
0.02 0.02 0.01 0.01 0.01 0.01 0.01 0.01 0.01 0.01 0.00 0.00 0.00 0.00 0.01 0.01 0.00 0.00 0.00 0.00 0.00 0.00 0.00 0.00 0.00 0.00 0.00 0.00 0.00 0.00 0.00 0.00 0.00 0.00 0.00 0.00 0.00 0.00 0.00 0.00 0.00 0.00 0.00 0.00
0.01 0.00 0.01 0.01 0.00 0.00 0.00 0.00 0.00 0.00 0.00 0.00 0.00 0.00 0.00 0.01 0.00 0.00 0.00 0.00 0.00 0.00 0.00 0.00 0.00 0.00 0.00 0.00 0.00 0.00 0.00 0.00 0.00 0.00 0.00 0.00 0.00 0.00 0.00 0.00 0.00 0.00 0.00 0.00
0.01 0.01 0.01 0.01 0.00 0.00 0.00 0.00 0.00 0.00 0.00 0.00 0.00 0.00 0.00 0.00 0.00 0.00 0.00 0.00 0.00 0.00 0.00 0.00 0.00 0.00 0.00 0.00 0.00 0.00 0.00 0.00 0.00 0.00 0.00 0.00 0.00 0.00 0.00 0.00 0.00 0.00 0.00 0.00
0.01 0.01 0.01 0.01 0.00 0.00 0.00 0.00 0.00 0.00 0.00 0.00 0.00 0.00 0.00 0.00 0.00 0.00 0.00 0.00 0.00 0.00 0.00 0.00 0.00 0.00 0.00 0.00 0.00 0.00 0.00 0.01 0.00 0.00 0.00 0.00 0.00 0.00 0.00 0.00 0.00 0.00 0.00 0.00
MSLP
1011.81 1012.00 1012.15 1012.30 1012.51 1012.81 1013.21 1013.70 1014.24 1014.77 1015.24 1015.61 1015.83 1015.93 1015.91 1015.82 1015.71 1015.61 1015.56 1015.56 1015.61 1015.70 1015.79 1015.87 1015.93 1015.98 1016.03 1016.11 1016.22 1016.39 1016.62 1016.90 1017.20 1017.51 1017.81 1018.08 1018.33 1018.55 1018.75 1018.94 1019.14 1019.35 1019.55 1019.73
1011.95 1012.10 1012.21 1012.33 1012.53 1012.83 1013.25 1013.77 1014.34 1014.90 1015.39 1015.74 1015.94 1016.00 1015.94 1015.81 1015.67 1015.57 1015.53 1015.57 1015.67 1015.80 1015.94 1016.06 1016.15 1016.21 1016.26 1016.33 1016.44 1016.61 1016.85 1017.15 1017.48 1017.81 1018.12 1018.38 1018.60 1018.76 1018.90 1019.03 1019.17 1019.33 1019.51 1019.71
1012.05 1012.17 1012.25 1012.36 1012.54 1012.86 1013.30 1013.84 1014.44 1015.00 1015.47 1015.79 1015.93 1015.92 1015.79 1015.60 1015.43 1015.31 1015.30 1015.38 1015.55 1015.78 1016.00 1016.21 1016.36 1016.48 1016.56 1016.65 1016.77 1016.95 1017.20 1017.51 1017.85 1018.19 1018.49 1018.74 1018.93 1019.05 1019.12 1019.19 1019.27 1019.38 1019.54 1019.74
1012.04 1012.15 1012.22 1012.32 1012.53 1012.86 1013.33 1013.90 1014.50 1015.05 1015.48 1015.74 1015.80 1015.70 1015.47 1015.19 1014.96 1014.81 1014.81 1014.94 1015.19 1015.52 1015.87 1016.19 1016.46 1016.66 1016.82 1016.96 1017.11 1017.32 1017.58 1017.89 1018.24 1018.58 1018.89 1019.13 1019.30 1019.38 1019.42 1019.43 1019.45 1019.52 1019.65 1019.84
1011.91 1012.00 1012.08 1012.20 1012.43 1012.80 1013.31 1013.90 1014.51 1015.04 1015.43 1015.61 1015.57 1015.35 1015.00 1014.61 1014.29 1014.09 1014.08 1014.24 1014.57 1015.00 1015.48 1015.94 1016.34 1016.66 1016.92 1017.14 1017.35 1017.59 1017.87 1018.20 1018.56 1018.92 1019.24 1019.49 1019.65 1019.73 1019.74 1019.72 1019.71 1019.74 1019.83 1019.99
1011.64 1011.73 1011.81 1011.97 1012.24 1012.66 1013.20 1013.83 1014.45 1014.96 1015.30 1015.40 1015.26 1014.91 1014.44 1013.93 1013.50 1013.23 1013.17 1013.35 1013.72 1014.24 1014.84 1015.43 1015.97 1016.42 1016.79 1017.10 1017.39 1017.67 1017.99 1018.35 1018.74 1019.12 1019.47 1019.74 1019.93 1020.03 1020.04 1020.02 1019.99 1019.98 1020.04 1020.16
1011.25 1011.33 1011.43 1011.61 1011.93 1012.40 1012.99 1013.65 1014.28 1014.79 1015.09 1015.12 1014.90 1014.44 1013.85 1013.22 1012.68 1012.32 1012.21 1012.36 1012.75 1013.33 1014.00 1014.71 1015.36 1015.94 1016.43 1016.83 1017.19 1017.54 1017.91 1018.31 1018.73 1019.15 1019.54 1019.86 1020.09 1020.23 1020.28 1020.27 1020.23 1020.21 1020.23 1020.30
1010.78 1010.85 1010.96 1011.17 1011.53 1012.03 1012.66 1013.35 1014.00 1014.50 1014.78 1014.77 1014.49 1013.96 1013.27 1012.55 1011.92 1011.48 1011.30 1011.40 1011.78 1012.37 1013.10 1013.87 1014.61 1015.29 1015.87 1016.36 1016.80 1017.22 1017.63 1018.08 1018.54 1019.01 1019.45 1019.82 1020.12 1020.31 1020.41 1020.43 1020.40 1020.37 1020.35 1020.38
1010.30 1010.36 1010.47 1010.69 1011.07 1011.59 1012.24 1012.93 1013.58 1014.08 1014.34 1014.33 1014.01 1013.45 1012.73 1011.96 1011.27 1010.77 1010.53 1010.58 1010.92 1011.50 1012.23 1013.03 1013.83 1014.56 1015.22 1015.78 1016.29 1016.76 1017.23 1017.72 1018.22 1018.74 1019.22 1019.66 1020.02 1020.27 1020.42 1020.48 1020.47 1020.44 1020.40 1020.39
1009.88 1009.91 1010.02 1010.24 1010.61 1011.12 1011.74 1012.41 1013.03 1013.51 1013.77 1013.75 1013.45 1012.90 1012.19 1011.43 1010.73 1010.21 1009.94 1009.96 1010.25 1010.79 1011.50 1012.29 1013.10 1013.87 1014.56 1015.18 1015.74 1016.26 1016.78 1017.31 1017.85 1018.40 1018.93 1019.41 1019.82 1020.12 1020.32 1020.42 1020.44 1020.41 1020.37 1020.32
1009.57 1009.60 1009.70 1009.89 1010.21 1010.67 1011.22 1011.81 1012.36 1012.79 1013.02 1013.00 1012.73 1012.24 1011.60 1010.90 1010.26 1009.77 1009.51 1009.51 1009.77 1010.27 1010.94 1011.71 1012.50 1013.28 1013.99 1014.65 1015.24 1015.81 1016.36 1016.92 1017.49 1018.06 1018.61 1019.12 1019.56 1019.90 1020.13 1020.27 1020.32 1020.30 1020.26 1020.20
1009.43 1009.46 1009.53 1009.69 1009.94 1010.29 1010.71 1011.17 1011.60 1011.93 1012.10 1012.07 1011.83 1011.41 1010.87 1010.29 1009.75 1009.35 1009.14 1009.16 1009.42 1009.89 1010.53 1011.26 1012.04 1012.80 1013.52 1014.20 1014.83 1015.42 1016.01 1016.59 1017.17 1017.75 1018.31 1018.82 1019.27 1019.62 1019.88 1020.04 1020.12 1020.13 1020.10 1020.05
1009.43 1009.48 1009.55 1009.64 1009.80 1010.00 1010.26 1010.53 1010.78 1010.96 1011.03 1010.96 1010.74 1010.40 1009.97 1009.52 1009.13 1008.85 1008.74 1008.83 1009.11 1009.58 1010.19 1010.90 1011.65 1012.40 1013.13 1013.82 1014.48 1015.10 1015.71 1016.31 1016.90 1017.48 1018.02 1018.52 1018.95 1019.31 1019.57 1019.75 1019.86 1019.90 1019.90 1019.88
1009.56 1009.64 1009.69 1009.73 1009.77 1009.82 1009.87 1009.92 1009.95 1009.94 1009.87 1009.72 1009.49 1009.21 1008.89 1008.59 1008.35 1008.22 1008.23 1008.40 1008.74 1009.23 1009.84 1010.53 1011.27 1012.02 1012.75 1013.46 1014.15 1014.80 1015.43 1016.05 1016.64 1017.20 1017.73 1018.20 1018.61 1018.95 1019.21 1019.41 1019.54 1019.62 1019.66 1019.69
1009.74 1009.85 1009.90 1009.89 1009.82 1009.70 1009.54 1009.35 1009.14 1008.92 1008.67 1008.41 1008.15 1007.89 1007.67 1007.50 1007.41 1007.43 1007.57 1007.85 1008.26 1008.79 1009.41 1010.10 1010.84 1011.59 1012.33 1013.07 1013.78 1014.47 1015.13 1015.75 1016.35 1016.90 1017.40 1017.85 1018.23 1018.55 1018.81 1019.01 1019.17 1019.29 1019.38 1019.45
1009.87 1010.02 1010.07 1010.01 1009.84 1009.57 1009.22 1008.81 1008.37 1007.93 1007.51 1007.13 1006.81 1006.56 1006.40 1006.33 1006.37 1006.53 1006.80 1007.18 1007.66 1008.24 1008.88 1009.58 1010.32 1011.07 1011.84 1012.60 1013.34 1014.06 1014.75 1015.40 1016.00 1016.55 1017.03 1017.45 1017.81 1018.11 1018.36 1018.57 1018.75 1018.91 1019.05 1019.16
1009.88 1010.05 1010.10 1010.00 1009.76 1009.37 1008.87 1008.28 1007.65 1007.03 1006.46 1005.96 1005.58 1005.32 1005.19 1005.20 1005.35 1005.61 1005.98 1006.45 1006.99 1007.61 1008.28 1008.99 1009.73 1010.49 1011.27 1012.05 1012.83 1013.58 1014.30 1014.98 1015.59 1016.14 1016.62 1017.02 1017.37 1017.65 1017.90 1018.11 1018.31 1018.49 1018.66 1018.81
1009.69 1009.85 1009.89 1009.77 1009.48 1009.02 1008.42 1007.72 1006.97 1006.23 1005.55 1004.98 1004.54 1004.27 1004.17 1004.23 1004.44 1004.78 1005.22 1005.75 1006.34 1006.98 1007.66 1008.38 1009.12 1009.89 1010.68 1011.49 1012.29 1013.07 1013.82 1014.52 1015.16 1015.71 1016.19 1016.59 1016.92 1017.20 1017.44 1017.65 1017.85 1018.04 1018.22 1018.38
1009.30 1009.41 1009.42 1009.28 1008.96 1008.48 1007.85 1007.11 1006.31 1005.53 1004.81 1004.20 1003.75 1003.48 1003.40 1003.49 1003.74 1004.13 1004.61 1005.17 1005.79 1006.44 1007.13 1007.84 1008.58 1009.35 1010.15 1010.96 1011.78 1012.58 1013.36 1014.08 1014.74 1015.31 1015.79 1016.19 1016.52 1016.78 1017.01 1017.20 1017.39 1017.57 1017.74 1017.89
1008.73 1008.76 1008.71 1008.53 1008.21 1007.74 1007.13 1006.42 1005.66 1004.90 1004.21 1003.63 1003.21 1002.96 1002.90 1003.02 1003.30 1003.70 1004.20 1004.78 1005.40 1006.05 1006.73 1007.44 1008.17 1008.93 1009.72 1010.53 1011.35 1012.17 1012.96 1013.70 1014.37 1014.95 1015.44 1015.84 1016.16 1016.41 1016.62 1016.79 1016.94 1017.09 1017.23 1017.35
1008.06 1007.97 1007.83 1007.60 1007.28 1006.84 1006.30 1005.67 1005.00 1004.34 1003.74 1003.23 1002.87 1002.67 1002.64 1002.79 1003.08 1003.49 1004.00 1004.57 1005.19 1005.83 1006.50 1007.19 1007.90 1008.65 1009.43 1010.23 1011.05 1011.86 1012.65 1013.39 1014.06 1014.65 1015.14 1015.53 1015.84 1016.07 1016.25 1016.38 1016.50 1016.59 1016.68 1016.75
1007.39 1007.13 1006.87 1006.58 1006.25 1005.85 1005.40 1004.89 1004.35 1003.82 1003.34 1002.95 1002.67 1002.54 1002.56 1002.73 1003.03 1003.44 1003.94 1004.51 1005.11 1005.75 1006.40 1007.08 1007.78 1008.51 1009.27 1010.06 1010.85 1011.65 1012.42 1013.14 1013.80 1014.37 1014.85 1015.23 1015.52 1015.72 1015.86 1015.95 1016.02 1016.06 1016.08 1016.10
1006.78 1006.34 1005.95 1005.58 1005.23 1004.87 1004.50 1004.11 1003.72 1003.34 1003.00 1002.73 1002.55 1002.49 1002.55 1002.75 1003.06 1003.47 1003.96 1004.52 1005.12 1005.74 1006.40 1007.06 1007.76 1008.47 1009.20 1009.96 1010.72 1011.48 1012.21 1012.90 1013.53 1014.07 1014.52 1014.87 1015.13 1015.30 1015.40 1015.45 1015.46 1015.45 1015.42 1015.39
1006.27 1005.67 1005.14 1004.69 1004.31 1003.97 1003.68 1003.40 1003.14 1002.90 1002.69 1002.53 1002.45 1002.45 1002.55 1002.76 1003.08 1003.48 1003.97 1004.53 1005.12 1005.75 1006.40 1007.07 1007.76 1008.45 1009.16 1009.88 1010.60 1011.30 1011.98 1012.62 1013.19 1013.69 1014.10 1014.41 1014.63 1014.77 1014.83 1014.84 1014.81 1014.76 1014.69 1014.62
1005.88 1005.12 1004.48 1003.95 1003.54 1003.23 1002.98 1002.79 1002.64 1002.51 1002.41 1002.34 1002.32 1002.37 1002.50 1002.72 1003.03 1003.44 1003.92 1004.48 1005.08 1005.72 1006.38 1007.05 1007.73 1008.41 1009.09 1009.76 1010.43 1011.07 1011.68 1012.24 1012.75 1013.18 1013.54 1013.81 1013.99 1014.09 1014.13 1014.11 1014.05 1013.97 1013.88 1013.80
1005.55 1004.70 1003.97 1003.39 1002.96 1002.66 1002.46 1002.33 1002.25 1002.19 1002.16 1002.15 1002.17 1002.25 1002.38 1002.60 1002.92 1003.32 1003.80 1004.36 1004.97 1005.62 1006.30 1006.98 1007.65 1008.32 1008.96 1009.59 1010.18 1010.75 1011.28 1011.76 1012.19 1012.56 1012.85 1013.07 1013.22 1013.29 1013.31 1013.27 1013.20 1013.11 1013.02 1012.95
Thickness
5784 5779 5776 5780 5783 5779 5774 5766 5759 5759 5763 5757 5751 5748 5748 5746 5743 5739 5736 5732 5729 5727 5726 5723 5721 5720 5717 5715 5713 5712 5711 5709 5709 5710 5710 5708 5707 5707 5706 5705 5702 5702 5701 5700
5773 5773 5785 5786 5782 5774 5769 5761 5758 5758 5760 5756 5751 5748 5751 5747 5744 5742 5737 5733 5730 5726 5723 5721 5719 5718 5716 5713 5711 5710 5709 5708 5708 5707 5706 5705 5704 5704 5703 5701 5698 5697 5697 5696
5770 5783 5787 5779 5773 5767 5766 5763 5761 5757 5756 5757 5750 5745 5746 5746 5747 5744 5742 5738 5735 5730 5725 5722 5719 5717 5716 5713 5711 5711 5708 5706 5705 5704 5705 5702 5701 5701 5700 5697 5696 5694 5693 5692
5775 5785 5780 5773 5771 5771 5763 5771 5766 5759 5752 5754 5751 5739 5748 5748 5742 5741 5741 5740 5738 5735 5731 5726 5722 5719 5717 5715 5713 5709 5707 5704 5703 5702 5703 5701 5700 5698 5695 5695 5694 5692 5690 5689
5773 5779 5775 5769 5773 5775 5769 5773 5767 5761 5756 5753 5753 5745 5753 5752 5743 5744 5745 5744 5742 5740 5736 5730 5727 5722 5720 5717 5714 5710 5706 5703 5701 5700 5699 5698 5698 5696 5694 5692 5689 5689 5687 5685
5779 5786 5783 5778 5780 5778 5772 5765 5761 5760 5760 5743 5753 5745 5748 5756 5755 5755 5752 5749 5746 5744 5740 5735 5731 5726 5722 5719 5716 5711 5706 5703 5701 5699 5698 5696 5693 5692 5690 5688 5688 5688 5686 5684
5764 5774 5781 5782 5768 5768 5767 5757 5746 5741 5742 5747 5754 5746 5754 5768 5769 5765 5759 5755 5752 5748 5743 5737 5732 5727 5723 5719 5716 5712 5707 5702 5700 5698 5696 5694 5692 5689 5688 5688 5686 5685 5685 5683
5755 5759 5774 5778 5774 5767 5765 5764 5745 5734 5741 5752 5749 5748 5765 5773 5773 5771 5767 5762 5756 5752 5747 5742 5736 5731 5726 5722 5717 5713 5708 5704 5701 5698 5695 5693 5691 5692 5690 5686 5686 5684 5683 5681
5762 5762 5779 5782 5783 5778 5764 5765 5775 5758 5755 5747 5755 5760 5770 5771 5767 5766 5765 5761 5757 5754 5750 5745 5741 5736 5730 5725 5720 5716 5710 5705 5702 5699 5695 5692 5691 5689 5687 5684 5683 5683 5679 5678
5773 5760 5771 5774 5776 5774 5777 5775 5761 5753 5736 5738 5750 5755 5763 5763 5764 5765 5764 5761 5759 5757 5754 5749 5745 5739 5734 5729 5724 5719 5713 5707 5703 5699 5696 5694 5691 5688 5685 5684 5681 5679 5676 5674
5773 5758 5759 5763 5762 5766 5762 5762 5764 5764 5758 5745 5740 5757 5782 5777 5775 5771 5769 5767 5763 5760 5757 5753 5749 5744 5738 5733 5726 5720 5714 5709 5704 5701 5698 5694 5691 5688 5685 5682 5680 5678 5675 5673
5769 5764 5757 5765 5778 5782 5775 5770 5765 5752 5748 5752 5751 5761 5788 5786 5784 5779 5775 5771 5769 5765 5762 5757 5751 5745 5739 5734 5728 5721 5716 5711 5706 5702 5698 5694 5691 5688 5685 5683 5680 5677 5674 5672
5761 5753 5743 5747 5754 5764 5765 5769 5769 5766 5758 5754 5750 5761 5784 5784 5782 5780 5777 5773 5769 5766 5762 5758 5751 5745 5739 5735 5730 5725 5719 5714 5709 5704 5699 5695 5692 5688 5685 5683 5680 5677 5674 5671
5756 5751 5750 5745 5756 5766 5761 5763 5764 5761 5754 5755 5759 5766 5776 5778 5778 5778 5777 5773 5769 5764 5760 5755 5749 5744 5740 5735 5730 5726 5721 5716 5711 5705 5700 5696 5692 5688 5685 5682 5679 5676 5673 5671
5751 5747 5754 5762 5769 5769 5766 5765 5763 5759 5763 5761 5768 5771 5778 5783 5782 5781 5778 5773 5768 5762 5758 5754 5748 5743 5739 5734 5730 5726 5721 5717 5711 5705 5701 5696 5693 5689 5685 5682 5679 5676 5673 5670
5745 5742 5748 5750 5761 5763 5759 5765 5765 5763 5766 5767 5769 5772 5789 5790 5787 5781 5776 5772 5767 5763 5760 5755 5750 5745 5740 5735 5731 5726 5721 5716 5711 5705 5701 5697 5693 5689 5685 5681 5678 5675 5672 5668
5741 5736 5735 5740 5754 5750 5746 5763 5766 5766 5770 5769 5764 5775 5787 5781 5779 5778 5777 5774 5770 5767 5764 5758 5753 5748 5743 5738 5733 5727 5722 5716 5710 5705 5701 5697 5692 5688 5685 5682 5678 5674 5670 5667
5730 5730 5736 5739 5737 5721 5757 5780 5776 5770 5772 5777 5776 5780 5782 5782 5783 5784 5782 5778 5773 5771 5766 5761 5756 5751 5746 5741 5734 5728 5722 5715 5709 5705 5701 5696 5692 5688 5684 5680 5676 5672 5669 5666
5733 5729 5731 5732 5729 5736 5757 5767 5769 5761 5762 5775 5774 5776 5779 5781 5778 5778 5782 5781 5777 5775 5771 5765 5760 5754 5747 5740 5734 5727 5720 5714 5709 5705 5700 5696 5692 5687 5682 5678 5674 5671 5667 5664
5727 5728 5728 5727 5720 5722 5748 5765 5771 5761 5750 5769 5771 5769 5772 5770 5765 5774 5780 5779 5776 5774 5770 5764 5759 5753 5744 5738 5732 5724 5719 5713 5709 5706 5701 5696 5691 5686 5681 5677 5673 5670 5666 5662
5715 5717 5720 5721 5720 5735 5753 5760 5759 5738 5743 5760 5765 5765 5766 5767 5769 5775 5778 5774 5772 5769 5765 5760 5755 5748 5741 5735 5728 5722 5717 5712 5709 5705 5699 5694 5689 5684 5680 5675 5671 5667 5664 5661
5716 5716 5715 5718 5714 5723 5746 5751 5743 5743 5752 5757 5759 5762 5762 5764 5767 5769 5769 5767 5765 5762 5758 5754 5748 5743 5737 5731 5725 5719 5714 5712 5707 5702 5696 5691 5686 5683 5680 5673 5668 5665 5661 5658
5716 5719 5723 5723 5725 5734 5742 5741 5744 5747 5747 5751 5755 5758 5758 5758 5759 5761 5761 5759 5757 5756 5752 5749 5743 5737 5731 5727 5722 5716 5712 5708 5702 5696 5691 5687 5683 5679 5676 5671 5667 5663 5659 5658
5712 5715 5716 5716 5726 5731 5735 5738 5741 5744 5745 5749 5753 5755 5755 5754 5755 5755 5755 5753 5750 5748 5745 5742 5737 5731 5725 5721 5718 5714 5709 5704 5697 5691 5687 5683 5679 5675 5671 5668 5666 5664 5661 5659
5705 5707 5708 5709 5718 5724 5727 5730 5734 5737 5742 5745 5748 5751 5751 5751 5750 5750 5748 5746 5744 5741 5738 5736 5731 5726 5720 5715 5711 5708 5704 5698 5692 5687 5683 5679 5676 5673 5669 5666 5664 5662 5659 5657
5701 5699 5699 5703 5709 5713 5716 5724 5728 5730 5733 5737 5739 5741 5744 5745 5743 5743 5741 5739 5737 5734 5731 5728 5725 5720 5715 5710 5706 5703 5698 5692 5686 5682 5678 5677 5674 5670 5667 5664 5661 5656 5652 5648